Time,TemperatureF,DewpointF,PressureIn,WindDirection,WindDirectionDegrees,WindSpeedMPH,WindSpeedGustMPH,Humidity,HourlyPrecipIn,Conditions,Clouds,dailyrainin,SolarRadiationWatts/m^2,SoftwareType,DateUTC
2013-08-28 11:44:00,50.0,47.0,-100.00,WNW,289,9.0,32.0,88,0.02,,,0.02,64.000000,,2013-08-28 17:44:00,
2013-08-28 11:52:00,50.0,47.0,-100.00,WNW,289,9.0,32.0,88,0.02,,,0.02,64.000000,,2013-08-28 17:52:00,
2013-08-28 12:02:00,50.0,47.0,-100.00,WNW,289,9.0,32.0,88,0.02,,,0.02,64.000000,,2013-08-28 18:02:00,
2013-08-28 12:42:00,52.0,47.0,-100.00,SE,129,6.0,13.0,82,0.01,,,-99.99,134.000000,,2013-08-28 18:42:00,
2013-08-28 12:53:00,52.0,47.0,-100.00,SE,129,6.0,13.0,82,0.01,,,-99.99,134.000000,,2013-08-28 18:53:00,
2013-08-28 13:02:00,52.0,47.0,-100.00,SE,129,6.0,13.0,82,0.01,,,-99.99,134.000000,,2013-08-28 19:02:00,
2013-08-28 13:42:00,56.0,54.0,-100.00,ESE,114,12.0,19.0,93,0.01,,,0.04,315.000000,,2013-08-28 19:42:00,
2013-08-28 13:52:00,56.0,54.0,-100.00,ESE,114,12.0,19.0,93,0.01,,,0.04,315.000000,,2013-08-28 19:52:00,
2013-08-28 14:03:00,56.0,54.0,-100.00,ESE,114,12.0,19.0,93,0.01,,,0.04,315.000000,,2013-08-28 20:03:00,
2013-08-28 14:43:00,58.0,50.0,-100.00,SSE,148,12.0,20.0,76,0.00,,,0.04,890.000000,,2013-08-28 20:43:00,
2013-08-28 14:52:00,58.0,50.0,-100.00,SSE,148,12.0,20.0,76,0.00,,,0.04,890.000000,,2013-08-28 20:52:00,
2013-08-28 15:01:00,58.0,50.0,-100.00,SSE,148,12.0,20.0,76,0.00,,,0.04,890.000000,,2013-08-28 21:01:00,
2013-08-28 15:06:00,63.0,52.0,-100.00,SSE,148,10.0,16.0,67,0.00,,,0.04,898.000000,,2013-08-28 21:06:00,
2013-08-28 15:44:00,63.0,52.0,-100.00,SSE,148,10.0,16.0,67,0.00,,,0.04,898.000000,,2013-08-28 21:44:00,
2013-08-28 15:57:00,63.0,52.0,-100.00,SSE,148,10.0,16.0,67,0.00,,,0.04,898.000000,,2013-08-28 21:57:00,
2013-08-28 16:43:00,66.0,52.0,-100.00,SE,141,8.0,15.0,61,0.00,,,0.04,797.000000,,2013-08-28 22:43:00,
2013-08-28 16:54:00,66.0,52.0,-100.00,SE,141,8.0,15.0,61,0.00,,,0.04,797.000000,,2013-08-28 22:54:00,
2013-08-28 17:03:00,66.0,52.0,-100.00,SE,141,8.0,15.0,61,0.00,,,0.04,797.000000,,2013-08-28 23:03:00,
2013-08-28 17:42:00,68.0,50.0,-100.00,SE,145,6.0,12.0,52,0.00,,,0.04,627.000000,,2013-08-28 23:42:00,
2013-08-28 17:53:00,68.0,50.0,-100.00,SE,145,6.0,12.0,52,0.00,,,0.04,627.000000,,2013-08-28 23:53:00,
2013-08-28 18:03:00,68.0,50.0,-100.00,SE,145,6.0,12.0,52,0.00,,,0.04,627.000000,,2013-08-29 00:03:00,
2013-08-28 19:03:00,68.0,48.0,-100.00,ESE,115,5.0,10.0,48,0.00,,,0.04,454.000000,,2013-08-29 01:03:00,
2013-08-28 19:42:00,67.0,46.0,-100.00,East,82,2.0,12.0,46,0.00,,,0.04,138.000000,,2013-08-29 01:42:00,
2013-08-28 19:52:00,67.0,46.0,-100.00,East,82,2.0,12.0,46,0.00,,,0.04,138.000000,,2013-08-29 01:52:00,
2013-08-28 20:02:00,67.0,46.0,-100.00,East,82,2.0,12.0,46,0.00,,,0.04,138.000000,,2013-08-29 02:02:00,
2013-08-28 20:52:00,64.0,44.0,-100.00,ESE,114,3.0,4.0,49,0.00,,,0.04,33.000000,,2013-08-29 02:52:00,
2013-08-28 21:02:00,64.0,44.0,-100.00,ESE,114,3.0,4.0,49,0.00,,,0.04,33.000000,,2013-08-29 03:02:00,
2013-08-28 21:06:00,63.0,45.0,-100.00,ENE,69,4.0,5.0,52,0.00,,,0.04,3.000000,,2013-08-29 03:06:00,
2013-08-28 21:45:00,63.0,45.0,-100.00,ENE,69,4.0,5.0,52,0.00,,,0.04,3.000000,,2013-08-29 03:45:00,
2013-08-28 21:57:00,63.0,45.0,-100.00,ENE,69,4.0,5.0,52,0.00,,,0.04,3.000000,,2013-08-29 03:57:00,
2013-08-28 22:46:00,63.0,45.0,-100.00,SE,127,6.0,8.0,51,0.00,,,0.04,0.000000,,2013-08-29 04:46:00,
2013-08-28 22:54:00,63.0,45.0,-100.00,SE,127,6.0,8.0,51,0.00,,,0.04,0.000000,,2013-08-29 04:54:00,
2013-08-28 23:05:00,63.0,45.0,-100.00,SE,127,6.0,8.0,51,0.00,,,0.04,0.000000,,2013-08-29 05:05:00,
2013-08-28 23:42:00,61.0,46.0,-100.00,SE,140,10.0,13.0,57,0.00,,,0.04,0.000000,,2013-08-29 05:42:00,
2013-08-28 23:52:00,61.0,46.0,-100.00,SE,140,10.0,13.0,57,0.00,,,0.04,0.000000,,2013-08-29 05:52:00,